Content
SEND FEEDBACK

Daily
Averages
Monthly
Summary
Thailand

BANGKOK, THAILAND


Home > Asia > Thailand
Elevation: 66 feet     Latitude: 13 44N     Longitude: 100 34E

WEATHER
 
SELECT A DAY
Number of Records: 246,163;   Date Range: 7/1/96 - 12/19/14
 
SHARE

PRINT THIS DATA

[ ← Previous Day ]
WEATHER ALMANAC - MARCH 15, 2013
[ Next Day → ]
[ °C ]   °F
Weather ElementAverageHighLow
Temperature83.9 °F93.2 °F (12:00 pm)78.8 °F (5:30 am)
Dewpoint73.7 °F77 °F (10:00 am)71 °F (1:00 am)
Humidity71.2 %83 % (7:00 am)50 % (1:00 pm)
Barometer29.90 in29.95 in (8:00 am)29.83 in (5:00 pm)
Wind Speed5.1 mph18.4 mph (4:00 pm)
Weather ElementAverage
Visibility6 mi
Wind DirectionSSE (148.2 °)

Weather ElementTotal
Precipitation---
Cooling Degree Days21 (Base 65)
Growing Degree Days36 (Base 50)
Averaged from 50 records on March 15, 2013
WEATHER CONDITIONS BREAKOUT
WIND DIRECTION BREAKOUT
WEATHER BY HOUR - MARCH 15, 2013
[ °C ]   °F
Local TimeTemperatureDewpointHumidityBarometerVisibilityWind DirectionWind SpeedGust SpeedPrecipitationEventsConditions
12:30 AM84.2 °F71.6 °F66 %29.89 in6.2 miSSE (160°)5.8 mphMostly Cloudy
1:00 AM83.0 °F71.0 °F60 %29.90 in6.0 miESE (120°)3.5 mphScattered Clouds
1:00 AM82.4 °F71.6 °F70 %29.89 in6.2 miESE (120°)3.5 mphMostly Cloudy
1:30 AM82.4 °F71.6 °F70 %29.89 in6.2 miESE (110°)3.5 mphMostly Cloudy
2:00 AM82.4 °F71.6 °F70 %29.86 in6.2 miESE (120°)3.5 mphMostly Cloudy
2:30 AM80.6 °F73.4 °F79 %29.86 in6.2 miEast (100°)3.5 mphMostly Cloudy
3:00 AM80.6 °F71.6 °F74 %29.86 in6.2 miSSE (150°)3.5 mphMostly Cloudy
3:30 AM80.6 °F71.6 °F74 %29.86 in6.2 miSSE (150°)2.3 mphMostly Cloudy
4:00 AM80.6 °F71.6 °F74 %29.86 in6.2 miSSE (150°)2.3 mphMostly Cloudy
4:30 AM80.6 °F71.6 °F74 %29.86 in6.2 miESE (120°)4.6 mphMostly Cloudy
5:00 AM80.6 °F71.6 °F74 %29.86 in6.2 miESE (120°)2.3 mphMostly Cloudy
5:30 AM78.8 °F71.6 °F78 %29.86 in6.2 miEast (90°)2.3 mphMostly Cloudy
6:00 AM78.8 °F71.6 °F78 %29.86 in6.2 miEast (90°)2.3 mphMostly Cloudy
6:30 AM78.8 °F71.6 °F78 %29.89 in6.2 miENE (70°)2.3 mphMostly Cloudy
7:00 AM78.8 °F73.4 °F83 %29.92 in5.0 miEast (90°)4.6 mphMostly Cloudy
7:30 AM80.6 °F73.4 °F79 %29.92 in5.0 miEast (90°)4.6 mphMostly Cloudy
8:00 AM80.6 °F73.4 °F79 %29.95 in5.0 miSSE (150°)3.5 mphMostly Cloudy
8:30 AM82.4 °F73.4 °F74 %29.95 in5.6 miEast (90°)4.6 mphMostly Cloudy
9:00 AM82.4 °F73.4 °F74 %29.95 in5.6 miEast (90°)4.6 mphMostly Cloudy
9:30 AM84.2 °F73.4 °F70 %29.95 in6.2 miSSE (150°)4.6 mphMostly Cloudy
10:00 AM87.8 °F77.0 °F70 %29.95 in6.2 miSSE (150°)6.9 mphMostly Cloudy
10:30 AM89.6 °F77.0 °F66 %29.95 in6.2 miSSE (150°)9.2 mphMostly Cloudy
11:00 AM91.4 °F77.0 °F63 %29.95 in6.2 miSSE (150°)5.8 mphMostly Cloudy
11:30 AM91.4 °F77.0 °F63 %29.95 in6.2 miSSE (150°)5.8 mphMostly Cloudy
12:00 PM93.2 °F75.2 °F56 %29.92 in6.2 miSSE (150°)5.8 mphMostly Cloudy
12:30 PM93.2 °F75.2 °F56 %29.92 in6.2 miSSE (150°)5.8 mphMostly Cloudy
1:00 PM93.0 °F76.0 °F50 %29.91 in6.0 miESE (120°)6.9 mphPartly Cloudy
1:00 PM93.2 °F77.0 °F59 %29.89 in6.2 miESE (120°)6.9 mphMostly Cloudy
1:30 PM93.2 °F77.0 °F59 %29.89 in6.2 miSouth (180°)5.8 mphMostly Cloudy
2:00 PM91.4 °F75.2 °F59 %29.86 in6.2 miSouth (180°)5.8 mphRainLight Rain
2:30 PM89.6 °F77.0 °F66 %29.86 in6.2 miSouth (180°)5.8 mphMostly Cloudy
3:00 PM89.6 °F75.2 °F62 %29.86 in6.2 miWest (270°)11.5 mphThunderstormMostly Cloudy
3:30 PM84.2 °F75.2 °F74 %29.89 in5.0 miSSW (200°)11.5 mphRain-ThunderstormLight Thunderstorms and Rain
4:00 PM78.8 °F71.6 °F78 %29.89 in5.0 miSouth (180°)18.4 mphRain-ThunderstormLight Thunderstorms and Rain
4:30 PM78.8 °F71.6 °F78 %29.86 in6.2 miSW (220°)9.2 mphRainLight Rain
5:00 PM78.8 °F71.6 °F78 %29.83 in6.2 miSW (220°)5.8 mphMostly Cloudy
5:30 PM78.8 °F71.6 °F78 %29.83 in6.2 miESE (120°)3.5 mphMostly Cloudy
6:00 PM82.4 °F73.4 °F74 %29.86 in6.2 miWSW (250°)6.9 mphMostly Cloudy
6:30 PM84.2 °F73.4 °F70 %29.86 in6.2 miSouth (180°)4.6 mphMostly Cloudy
7:00 PM83.0 °F75.0 °F70 %29.90 in6.0 miSouth (180°)3.5 mphPartly Cloudy
7:00 PM82.4 °F75.2 °F79 %29.89 in6.2 miSouth (180°)3.5 mphMostly Cloudy
7:30 PM82.4 °F73.4 °F74 %29.89 in6.2 miSSE (150°)3.5 mphMostly Cloudy
8:00 PM82.4 °F73.4 °F74 %29.89 in6.2 miSouth (180°)4.6 mphMostly Cloudy
8:30 PM82.4 °F73.4 °F74 %29.92 in6.2 miSSE (150°)4.6 mphMostly Cloudy
9:00 PM82.4 °F75.2 °F79 %29.92 in6.2 miSouth (180°)3.5 mphMostly Cloudy
9:30 PM82.4 °F75.2 °F79 %29.92 in6.2 miSouth (180°)3.5 mphMostly Cloudy
10:00 PM82.4 °F73.4 °F74 %29.92 in6.2 miSouth (180°)5.8 mphMostly Cloudy
10:30 PM82.4 °F73.4 °F74 %29.95 in6.2 miSouth (180°)3.5 mphMostly Cloudy
11:00 PM82.4 °F73.4 °F74 %29.95 in6.2 miEast (100°)3.5 mphMostly Cloudy
11:30 PM82.4 °F73.4 °F74 %29.95 in6.2 miEast (100°)3.5 mphMostly Cloudy
Hourly data recorded from VTBD, located miles away from Bangkok, Thailand







STORIES FROM OUR PARTNERS